When you browse on this site, cookies collect data to enhance your experience and personalize the content and advertising you see.
Visit our Privacy Policy to learn more. By continuing to use the site, you agree to this use of cookies and data.
  • In Czech Republic
  • List of Countries
  • For 7 days
  • Water Temperature
  • Satellite Maps
  • Weather Map
  • Weather Widgets
  • user-avatar
    Login

    Hourly Weather Yanaykino

    Today, 19 February, Tuesday

    Time Temperature Precipitation Wind Pressure Humidity
    00:00 -9°C° 0.1 mm 11 mps 743 mmHg 82%
    01:00 -11°C° 0 mm 11 mps 744 mmHg 81%
    02:00 -11°C° 0 mm 11 mps 745 mmHg 81%
    03:00 -12°C° 0 mm 11 mps 746 mmHg 80%
    04:00 -13°C° 0 mm 11 mps 747 mmHg 80%
    05:00 -13°C° 0 mm 11 mps 748 mmHg 80%
    06:00 -14°C° 0 mm 11 mps 748 mmHg 80%
    07:00 -16°C° 0 mm 11 mps 750 mmHg 80%
    08:00 -17°C° 0 mm 11 mps 751 mmHg 80%
    09:00 -17°C° 0 mm 11 mps 752 mmHg 81%
    10:00 -17°C° 0 mm 10 mps 753 mmHg 81%
    11:00 -17°C° 0 mm 10 mps 754 mmHg 81%
    12:00 -16°C° 0 mm 9 mps 755 mmHg 81%
    13:00 -17°C° 0 mm 9 mps 756 mmHg 81%
    14:00 -17°C° 0 mm 9 mps 756 mmHg 82%
    15:00 -17°C° 0 mm 8 mps 757 mmHg 82%
    16:00 -18°C° 0 mm 7 mps 758 mmHg 83%
    17:00 -18°C° 0 mm 7 mps 759 mmHg 84%
    18:00 -18°C° 0 mm 6 mps 760 mmHg 85%
    19:00 -18°C° 0 mm 5 mps 760 mmHg 85%
    20:00 -19°C° 0 mm 5 mps 761 mmHg 85%
    21:00 -18°C° 0 mm 4 mps 761 mmHg 85%
    22:00 -18°C° 0 mm 4 mps 762 mmHg 85%
    23:00 -17°C° 0 mm 3 mps 762 mmHg 86%

    Tomorrow, 20 February, Wednesday

    Time Temperature Precipitation Wind Pressure Humidity
    00:00 -17°C° 0 mm 3 mps 762 mmHg 86%
    01:00 -16°C° 0 mm 3 mps 762 mmHg 86%
    02:00 -15°C° 0 mm 3 mps 762 mmHg 85%
    03:00 -14°C° 0 mm 3 mps 762 mmHg 85%
    04:00 -14°C° 0 mm 3 mps 762 mmHg 84%
    05:00 -15°C° 0 mm 4 mps 762 mmHg 84%
    06:00 -15°C° 0 mm 5 mps 762 mmHg 84%
    07:00 -15°C° 0 mm 4 mps 762 mmHg 86%
    08:00 -15°C° 0 mm 4 mps 762 mmHg 87%
    09:00 -14°C° 0 mm 3 mps 762 mmHg 89%
    10:00 -13°C° 0 mm 3 mps 762 mmHg 90%
    11:00 -12°C° 0 mm 3 mps 762 mmHg 90%
    12:00 -10°C° 0 mm 3 mps 762 mmHg 91%
    13:00 -9°C° 0 mm 3 mps 762 mmHg 91%
    14:00 -9°C° 0 mm 4 mps 762 mmHg 91%
    15:00 -9°C° 0 mm 4 mps 762 mmHg 91%
    16:00 -9°C° 0 mm 4 mps 762 mmHg 91%
    17:00 -10°C° 0 mm 4 mps 762 mmHg 91%
    18:00 -11°C° 0 mm 4 mps 762 mmHg 92%
    19:00 -11°C° 0 mm 4 mps 762 mmHg 91%
    20:00 -11°C° 0 mm 4 mps 762 mmHg 91%
    21:00 -11°C° 0 mm 5 mps 762 mmHg 90%
    22:00 -11°C° 0 mm 5 mps 762 mmHg 89%
    23:00 -11°C° 0 mm 5 mps 762 mmHg 87%

    Day after tomorrow, 21 February, Thursday

    Time Temperature Precipitation Wind Pressure Humidity
    00:00 -11°C° 0 mm 5 mps 761 mmHg 85%
    01:00 -11°C° 0 mm 5 mps 761 mmHg 84%
    02:00 -11°C° 0 mm 5 mps 761 mmHg 82%
    03:00 -11°C° 0 mm 5 mps 761 mmHg 81%
    04:00 -11°C° 0 mm 5 mps 761 mmHg 80%
    05:00 -11°C° 0 mm 5 mps 760 mmHg 80%
    06:00 -11°C° 0 mm 6 mps 760 mmHg 80%
    07:00 -11°C° 0 mm 6 mps 760 mmHg 80%
    08:00 -11°C° 0 mm 7 mps 760 mmHg 81%
    09:00 -11°C° 0 mm 7 mps 760 mmHg 81%
    10:00 -8°C° 0 mm 7 mps 760 mmHg 81%
    11:00 -7°C° 0 mm 8 mps 759 mmHg 82%
    12:00 -5°C° 0 mm 8 mps 759 mmHg 82%
    13:00 -5°C° 0 mm 8 mps 759 mmHg 84%
    14:00 -4°C° 0 mm 8 mps 759 mmHg 86%
    15:00 -4°C° 0 mm 8 mps 758 mmHg 87%
    16:00 -4°C° 0.1 mm 8 mps 758 mmHg 89%
    17:00 -4°C° 0.1 mm 8 mps 758 mmHg 90%
    18:00 -2°C° 0.1 mm 8 mps 757 mmHg 91%
    19:00 -2°C° 0.4 mm 8 mps 757 mmHg 91%
    20:00 -2°C° 0.4 mm 8 mps 757 mmHg 91%
    21:00 -3°C° 0.4 mm 9 mps 756 mmHg 91%
    22:00 -3°C° 0.3 mm 9 mps 756 mmHg 91%
    23:00 -3°C° 0.3 mm 9 mps 755 mmHg 91%

    22 February, Friday

    Time Temperature Precipitation Wind Pressure Humidity
    00:00 -3°C° 0.3 mm 10 mps 755 mmHg 91%
    01:00 -3°C° 0.6 mm 9 mps 754 mmHg 91%
    02:00 -3°C° 0.6 mm 9 mps 754 mmHg 91%
    03:00 -3°C° 0.6 mm 9 mps 753 mmHg 90%
    04:00 -2°C° 0.8 mm 8 mps 753 mmHg 91%
    05:00 -2°C° 0.8 mm 8 mps 752 mmHg 92%
    06:00 -2°C° 0.8 mm 7 mps 752 mmHg 93%
    07:00 -3°C° 0.5 mm 7 mps 752 mmHg 92%
    08:00 -3°C° 0.5 mm 6 mps 752 mmHg 92%
    09:00 -3°C° 0.5 mm 6 mps 752 mmHg 92%
    10:00 -4°C° 0 mm 6 mps 752 mmHg 91%
    11:00 -5°C° 0 mm 6 mps 752 mmHg 91%
    12:00 -6°C° 0 mm 6 mps 753 mmHg 90%
    13:00 -6°C° 0.1 mm 7 mps 753 mmHg 89%
    14:00 -6°C° 0.1 mm 7 mps 754 mmHg 88%
    15:00 -6°C° 0.1 mm 7 mps 754 mmHg 86%
    16:00 -5°C° 0 mm 6 mps 755 mmHg 87%
    17:00 -5°C° 0 mm 6 mps 756 mmHg 87%
    18:00 -6°C° 0 mm 6 mps 756 mmHg 87%
    19:00 -6°C° 0 mm 6 mps 757 mmHg 88%
    20:00 -6°C° 0 mm 5 mps 757 mmHg 89%
    21:00 -6°C° 0 mm 5 mps 758 mmHg 90%
    22:00 -6°C° 0 mm 5 mps 758 mmHg 91%
    23:00 -7°C° 0 mm 4 mps 759 mmHg 92%

    23 February, Saturday

    Time Temperature Precipitation Wind Pressure Humidity
    00:00 -7°C° 0 mm 4 mps 759 mmHg 93%
    01:00 -7°C° 0 mm 4 mps 760 mmHg 93%
    02:00 -7°C° 0 mm 4 mps 760 mmHg 94%
    03:00 -7°C° 0 mm 4 mps 761 mmHg 94%
    04:00 -6°C° 0 mm 3 mps 761 mmHg 94%
    05:00 -6°C° 0 mm 3 mps 761 mmHg 95%
    06:00 -6°C° 0 mm 3 mps 762 mmHg 95%
    07:00 -6°C° 0 mm 3 mps 762 mmHg 95%
    08:00 -7°C° 0 mm 3 mps 763 mmHg 95%
    09:00 -6°C° 0 mm 2 mps 763 mmHg 95%
    10:00 -6°C° 0 mm 2 mps 764 mmHg 93%
    11:00 -5°C° 0 mm 2 mps 764 mmHg 92%
    12:00 -5°C° 0 mm 2 mps 764 mmHg 90%
    13:00 -5°C° 0 mm 2 mps 765 mmHg 90%
    14:00 -5°C° 0 mm 2 mps 765 mmHg 90%
    15:00 -3°C° 0 mm 1 mps 765 mmHg 89%
    16:00 -4°C° 0 mm 1 mps 765 mmHg 90%
    17:00 -6°C° 0 mm 1 mps 766 mmHg 91%
    18:00 -7°C° 0 mm 1 mps 766 mmHg 92%
    19:00 -8°C° 0 mm 1 mps 766 mmHg 91%
    20:00 -8°C° 0 mm 1 mps 767 mmHg 90%
    21:00 -10°C° 0 mm 2 mps 767 mmHg 90%
    22:00 -10°C° 0.1 mm 2 mps 767 mmHg 90%
    23:00 -9°C° 0.1 mm 2 mps 768 mmHg 91%

    24 February, Sunday

    Time Temperature Precipitation Wind Pressure Humidity
    00:00 -9°C° 0.1 mm 2 mps 768 mmHg 92%
    01:00 -10°C° 0.1 mm 3 mps 768 mmHg 93%
    02:00 -10°C° 0.1 mm 3 mps 768 mmHg 93%
    03:00 -10°C° 0.1 mm 3 mps 768 mmHg 94%
    04:00 -9°C° 0.2 mm 3 mps 769 mmHg 94%
    05:00 -9°C° 0.2 mm 3 mps 769 mmHg 95%
    06:00 -10°C° 0.2 mm 4 mps 769 mmHg 95%
    07:00 -10°C° 0.3 mm 4 mps 769 mmHg 95%
    08:00 -9°C° 0.3 mm 4 mps 770 mmHg 96%
    09:00 -8°C° 0.3 mm 4 mps 770 mmHg 96%
    10:00 -8°C° 0.2 mm 4 mps 770 mmHg 96%
    11:00 -7°C° 0.2 mm 4 mps 770 mmHg 96%
    12:00 -5°C° 0.2 mm 4 mps 770 mmHg 97%
    13:00 -4°C° 0 mm 4 mps 771 mmHg 97%
    14:00 -4°C° 0 mm 4 mps 771 mmHg 96%
    15:00 -2°C° 0 mm 3 mps 771 mmHg 96%
    16:00 -4°C° 0 mm 3 mps 771 mmHg 96%
    17:00 -4°C° 0 mm 3 mps 771 mmHg 96%
    18:00 -4°C° 0 mm 3 mps 771 mmHg 96%
    19:00 -4°C° 0 mm 3 mps 771 mmHg 95%
    20:00 -4°C° 0 mm 2 mps 771 mmHg 95%
    21:00 -4°C° 0 mm 2 mps 771 mmHg 95%
    22:00 -4°C° 0 mm 2 mps 771 mmHg 94%
    23:00 -5°C° 0 mm 2 mps 770 mmHg 94%
    Show more